| time (UTC) | temp F | wind direction | speed MPH | gust MPH | rain 1hr in | rain 24hr in | rain mn in | humidity % | barometer mb |
| 20260506133705 | 47 | 38 | 3.0 | 7.0 | 0.00 | 0.00 | 0.00 | 64 | 1015.7 |
| 20260506133206 | 48 | 71 | 3.0 | 8.0 | 0.00 | 0.00 | 0.00 | 61 | 1015.7 |
| 20260506132706 | 49 | 63 | 6.0 | 12.0 | 0.00 | 0.00 | 0.00 | 63 | 1015.7 |
| 20260506131707 | 48 | 50 | 3.0 | 18.0 | 0.00 | 0.00 | 0.00 | 65 | 1015.7 |
| 20260506131206 | 48 | 59 | 3.0 | 18.0 | 0.00 | 0.00 | 0.00 | 67 | 1015.7 |
| 20260506130705 | 47 | 61 | 3.0 | 10.0 | 0.00 | 0.00 | 0.00 | 65 | 1015.8 |
| 20260506130205 | 47 | 59 | 3.0 | 10.0 | 0.00 | 0.00 | 0.00 | 65 | 1015.7 |
| 20260506125705 | 47 | 30 | 6.0 | 13.0 | 0.00 | 0.00 | 0.00 | 65 | 1015.7 |
| 20260506125205 | 47 | 60 | 6.0 | 9.0 | 0.00 | 0.00 | 0.00 | 66 | 1015.7 |
| 20260506124705 | 46 | 65 | 5.0 | 8.0 | 0.00 | 0.00 | 0.00 | 67 | 1015.8 |
| 20260506124206 | 46 | 65 | 3.0 | 8.0 | 0.00 | 0.00 | 0.00 | 67 | 1015.8 |
| 20260506123205 | 45 | 38 | 4.0 | 8.0 | 0.00 | 0.00 | 0.00 | 67 | 1015.8 |
| 20260506122705 | 45 | 61 | 5.0 | 8.0 | 0.00 | 0.00 | 0.00 | 66 | 1015.9 |
| 20260506122205 | 46 | 39 | 3.0 | 8.0 | 0.00 | 0.00 | 0.00 | 69 | 1015.9 |
| 20260506121706 | 45 | 57 | 4.0 | 7.0 | 0.00 | 0.00 | 0.00 | 67 | 1015.9 |
| 20260506121205 | 45 | 49 | 5.0 | 10.0 | 0.00 | 0.00 | 0.00 | 68 | 1015.9 |
| 20260506120206 | 46 | 59 | 4.0 | 8.0 | 0.00 | 0.00 | 0.00 | 68 | 1015.9 |
| 20260506115705 | 46 | 56 | 5.0 | 15.0 | 0.00 | 0.00 | 0.00 | 67 | 1015.9 |
| 20260506115205 | 46 | 52 | 5.0 | 15.0 | 0.00 | 0.00 | 0.00 | 69 | 1015.9 |
| 20260506114705 | 46 | 51 | 5.0 | 8.0 | 0.00 | 0.00 | 0.00 | 70 | 1015.9 |
| 20260506114206 | 46 | 52 | 2.0 | 8.0 | 0.00 | 0.00 | 0.00 | 70 | 1016.0 |
| 20260506113707 | 45 | 23 | 5.0 | 10.0 | 0.00 | 0.00 | 0.00 | 71 | 1016.0 |
| 20260506113206 | 45 | 58 | 2.0 | 6.0 | 0.00 | 0.00 | 0.00 | 69 | 1015.9 |
| 20260506112706 | 45 | 50 | 3.0 | 7.0 | 0.00 | 0.00 | 0.00 | 70 | 1016.0 |
| 20260506112206 | 45 | 36 | 3.0 | 7.0 | 0.00 | 0.00 | 0.00 | 69 | 1016.0 |
| 20260506111706 | 45 | 20 | 3.0 | 8.0 | 0.00 | 0.00 | 0.00 | 69 | 1016.0 |
| 20260506111206 | 45 | 43 | 3.0 | 8.0 | 0.00 | 0.00 | 0.00 | 69 | 1016.0 |
| 20260506110706 | 45 | 27 | 6.0 | 8.0 | 0.00 | 0.00 | 0.00 | 70 | 1016.0 |
| 20260506110205 | 45 | 43 | 4.0 | 10.0 | 0.00 | 0.00 | 0.00 | 70 | 1015.9 |
| 20260506105706 | 45 | 32 | 5.0 | 8.0 | 0.00 | 0.00 | 0.00 | 69 | 1015.9 |
| 20260506104706 | 46 | 53 | 5.0 | 8.0 | 0.00 | 0.00 | 0.00 | 69 | 1016.0 |
| 20260506104206 | 46 | 57 | 5.0 | 15.0 | 0.00 | 0.00 | 0.00 | 66 | 1016.0 |
| 20260506103706 | 46 | 49 | 5.0 | 12.0 | 0.00 | 0.00 | 0.00 | 68 | 1016.0 |
| 20260506103205 | 46 | 35 | 5.0 | 8.0 | 0.00 | 0.00 | 0.00 | 68 | 1016.0 |
| 20260506102706 | 46 | 40 | 7.0 | 17.0 | 0.00 | 0.00 | 0.00 | 64 | 1015.9 |
| 20260506102204 | 47 | 67 | 6.0 | 10.0 | 0.00 | 0.00 | 0.00 | 68 | 1015.9 |
| 20260506101706 | 46 | 29 | 6.0 | 13.0 | 0.00 | 0.00 | 0.00 | 67 | 1015.9 |
| 20260506101205 | 45 | 51 | 5.0 | 10.0 | 0.00 | 0.00 | 0.00 | 68 | 1016.0 |
| 20260506100706 | 45 | 64 | 3.0 | 8.0 | 0.00 | 0.00 | 0.00 | 69 | 1016.0 |
| 20260506100206 | 45 | 44 | 7.0 | 13.0 | 0.00 | 0.00 | 0.00 | 68 | 1016.0 |
| 20260506095706 | 44 | 49 | 5.0 | 8.0 | 0.00 | 0.00 | 0.00 | 68 | 1016.0 |
| 20260506095206 | 44 | 44 | 4.0 | 10.0 | 0.00 | 0.00 | 0.00 | 68 | 1016.1 |
| 20260506094707 | 44 | 49 | 5.0 | 12.0 | 0.00 | 0.00 | 0.00 | 68 | 1016.1 |
| 20260506094206 | 44 | 28 | 5.0 | 9.0 | 0.00 | 0.00 | 0.00 | 66 | 1016.0 |
| 20260506093705 | 44 | 56 | 4.0 | 13.0 | 0.00 | 0.00 | 0.00 | 67 | 1016.0 |
| 20260506093206 | 44 | 23 | 5.0 | 10.0 | 0.00 | 0.00 | 0.00 | 67 | 1016.0 |
| 20260506092705 | 44 | 63 | 4.0 | 7.0 | 0.00 | 0.00 | 0.00 | 66 | 1016.0 |
| 20260506091205 | 44 | 50 | 3.0 | 8.0 | 0.00 | 0.00 | 0.00 | 69 | 1016.0 |
| 20260506090705 | 44 | 25 | 3.0 | 7.0 | 0.00 | 0.00 | 0.00 | 68 | 1016.0 |
| 20260506090206 | 44 | 39 | 5.0 | 9.0 | 0.00 | 0.00 | 0.00 | 69 | 1016.0 |
| 20260506085707 | 44 | 29 | 4.0 | 7.0 | 0.00 | 0.00 | 0.00 | 71 | 1016.0 |
| 20260506085207 | 44 | 34 | 3.0 | 7.0 | 0.00 | 0.00 | 0.00 | 71 | 1016.0 |
| 20260506084706 | 44 | 52 | 4.0 | 8.0 | 0.00 | 0.00 | 0.00 | 71 | 1016.1 |
| 20260506084206 | 43 | 32 | 5.0 | 8.0 | 0.00 | 0.00 | 0.00 | 72 | 1016.1 |
| 20260506083705 | 43 | 31 | 3.0 | 8.0 | 0.00 | 0.00 | 0.00 | 73 | 1016.0 |
| 20260506083206 | 43 | 45 | 4.0 | 8.0 | 0.00 | 0.00 | 0.00 | 73 | 1016.0 |
| 20260506081706 | 43 | 41 | 6.0 | 10.0 | 0.00 | 0.00 | 0.00 | 74 | 1016.0 |
| 20260506081205 | 44 | 45 | 4.0 | 6.0 | 0.00 | 0.00 | 0.00 | 76 | 1015.9 |
| 20260506080705 | 44 | 10 | 5.0 | 7.0 | 0.00 | 0.00 | 0.00 | 78 | 1015.9 |
| 20260506080205 | 43 | 20 | 2.0 | 7.0 | 0.00 | 0.00 | 0.00 | 78 | 1015.8 |
| 20260506073205 | 43 | 57 | 6.0 | 15.0 | 0.00 | 0.00 | 0.00 | 78 | 1015.7 |
| 20260506072706 | 43 | 59 | 7.0 | 15.0 | 0.00 | 0.00 | 0.00 | 80 | 1015.7 |
| 20260506072205 | 43 | 53 | 5.0 | 14.0 | 0.00 | 0.00 | 0.00 | 83 | 1015.6 |
| 20260506071705 | 42 | 50 | 5.0 | 10.0 | 0.00 | 0.00 | 0.00 | 84 | 1015.6 |
| 20260506071205 | 42 | 64 | 8.0 | 14.0 | 0.00 | 0.00 | 0.00 | 85 | 1015.6 |
| 20260506070705 | 42 | 46 | 7.0 | 14.0 | 0.00 | 0.00 | 0.00 | 87 | 1015.5 |
| 20260506070205 | 41 | 49 | 5.0 | 14.0 | 0.00 | 0.00 | 0.00 | 89 | 1015.5 |
| 20260506062205 | 40 | 35 | 1.0 | 2.0 | 0.00 | 0.00 | 0.00 | 91 | 1015.4 |
| 20260506061706 | 39 | 21 | 1.0 | 1.0 | 0.00 | 0.00 | 0.00 | 91 | 1015.4 |
| 20260506061206 | 39 | 1 | 1.0 | 2.0 | 0.00 | 0.00 | 0.00 | 91 | 1015.4 |
| 20260506060705 | 39 | 4 | 3.0 | 8.0 | 0.00 | 0.00 | 0.00 | 91 | 1015.3 |
| 20260506060205 | 39 | 22 | 5.0 | 8.0 | 0.00 | 0.00 | 0.00 | 92 | 1015.3 |
| 20260506051207 | 36 | 38 | 2.0 | 3.0 | 0.00 | 0.00 | 0.00 | 92 | 1015.3 |
| 20260506050705 | 36 | 68 | 1.0 | 2.0 | 0.00 | 0.00 | 0.00 | 91 | 1015.3 |
| 20260506050205 | 35 | 41 | 0.0 | 1.0 | 0.00 | 0.00 | 0.00 | 91 | 1015.3 |
| 20260506044706 | 35 | 60 | 0.0 | 1.0 | 0.00 | 0.00 | 0.00 | 91 | 1015.2 |
| 20260506044205 | 35 | 57 | 0.0 | 2.0 | 0.00 | 0.00 | 0.00 | 90 | 1015.3 |
| 20260506043705 | 35 | 47 | 0.0 | 1.0 | 0.00 | 0.00 | 0.00 | 90 | 1015.2 |
| 20260506043205 | 36 | 27 | 1.0 | 1.0 | 0.00 | 0.00 | 0.00 | 90 | 1015.2 |
| 20260506042705 | 36 | 18 | 0.0 | 1.0 | 0.00 | 0.00 | 0.00 | 90 | 1015.2 |
| 20260506041705 | 36 | 10 | 0.0 | 1.0 | 0.00 | 0.00 | 0.00 | 90 | 1015.2 |
| 20260506041205 | 36 | 29 | 0.0 | 1.0 | 0.00 | 0.00 | 0.00 | 90 | 1015.2 |
| 20260506040705 | 36 | 36 | 0.0 | 1.0 | 0.00 | 0.00 | 0.00 | 90 | 1015.2 |
| 20260506040206 | 37 | 37 | 0.0 | 1.0 | 0.00 | 0.00 | 0.00 | 90 | 1015.3 |
| 20260506035707 | 37 | 37 | 0.0 | 0.0 | 0.00 | 0.00 | 0.00 | 90 | 1015.2 |
| 20260506034705 | 37 | 37 | 1.0 | 1.0 | 0.00 | 0.00 | 0.00 | 90 | 1015.3 |
| 20260506034206 | 37 | 37 | 0.0 | 1.0 | 0.00 | 0.00 | 0.00 | 90 | 1015.3 |
| 20260506033706 | 37 | 37 | 1.0 | 2.0 | 0.00 | 0.00 | 0.00 | 90 | 1015.3 |
| 20260506033206 | 38 | 32 | 1.0 | 5.0 | 0.00 | 0.00 | 0.00 | 90 | 1015.3 |
| 20260506032706 | 38 | 3 | 2.0 | 5.0 | 0.00 | 0.00 | 0.00 | 90 | 1015.3 |
| 20260506031707 | 38 | 1 | 1.0 | 5.0 | 0.00 | 0.00 | 0.00 | 90 | 1015.3 |
| 20260506031206 | 38 | 6 | 1.0 | 5.0 | 0.00 | 0.00 | 0.00 | 90 | 1015.3 |
| 20260506030706 | 38 | 1 | 1.0 | 5.0 | 0.00 | 0.00 | 0.00 | 91 | 1015.3 |
| 20260506025706 | 38 | 1 | 1.0 | 6.0 | 0.00 | 0.00 | 0.00 | 91 | 1015.3 |
| 20260506024705 | 37 | 50 | 1.0 | 2.0 | 0.00 | 0.00 | 0.00 | 90 | 1015.3 |
| 20260506024207 | 37 | 50 | 0.0 | 1.0 | 0.00 | 0.00 | 0.00 | 90 | 1015.4 |
| 20260506023706 | 37 | 49 | 1.0 | 2.0 | 0.00 | 0.00 | 0.00 | 90 | 1015.3 |
| 20260506023205 | 37 | 55 | 0.0 | 2.0 | 0.00 | 0.00 | 0.00 | 90 | 1015.3 |
| 20260506022706 | 37 | 65 | 1.0 | 2.0 | 0.00 | 0.00 | 0.00 | 90 | 1015.3 |
| 20260506022206 | 37 | 0 | 0.0 | 1.0 | 0.00 | 0.00 | 0.00 | 90 | 1015.4 |
| 20260506021206 | 37 | 3 | 1.0 | 2.0 | 0.00 | 0.00 | 0.00 | 89 | 1015.4 |
| 20260506020705 | 37 | 0 | 1.0 | 5.0 | 0.00 | 0.00 | 0.00 | 89 | 1015.4 |
| 20260506020206 | 36 | 6 | 1.0 | 5.0 | 0.00 | 0.00 | 0.00 | 89 | 1015.4 |
| 20260506015206 | 36 | 24 | 0.0 | 3.0 | 0.00 | 0.00 | 0.00 | 88 | 1015.5 |
| 20260506014706 | 36 | 35 | 1.0 | 2.0 | 0.00 | 0.00 | 0.00 | 88 | 1015.4 |
| 20260506014206 | 36 | 40 | 0.0 | 1.0 | 0.00 | 0.00 | 0.00 | 88 | 1015.5 |
| 20260506013704 | 37 | 51 | 0.0 | 2.0 | 0.00 | 0.00 | 0.00 | 88 | 1015.4 |
| 20260506013206 | 37 | 55 | 1.0 | 2.0 | 0.00 | 0.00 | 0.00 | 88 | 1015.4 |
| 20260506012706 | 37 | 47 | 1.0 | 2.0 | 0.00 | 0.00 | 0.00 | 88 | 1015.4 |
| 20260506011705 | 38 | 5 | 1.0 | 2.0 | 0.00 | 0.00 | 0.00 | 88 | 1015.4 |
| 20260506011206 | 38 | 28 | 1.0 | 1.0 | 0.00 | 0.00 | 0.00 | 88 | 1015.4 |
| 20260506010206 | 38 | 22 | 1.0 | 5.0 | 0.00 | 0.00 | 0.00 | 88 | 1015.4 |
| 20260506005706 | 38 | 8 | 2.0 | 5.0 | 0.00 | 0.00 | 0.00 | 88 | 1015.5 |
| 20260506005206 | 37 | 13 | 1.0 | 6.0 | 0.00 | 0.00 | 0.00 | 88 | 1015.5 |
| 20260506004205 | 37 | 359 | 4.0 | 7.0 | 0.00 | 0.00 | 0.00 | 87 | 1015.6 |
| 20260506003706 | 37 | 0 | 2.0 | 5.0 | 0.00 | 0.00 | 0.00 | 87 | 1015.6 |
| 20260506003206 | 37 | 19 | 1.0 | 2.0 | 0.00 | 0.00 | 0.00 | 86 | 1015.6 |
| 20260506002706 | 37 | 22 | 1.0 | 2.0 | 0.00 | 0.00 | 0.00 | 86 | 1015.6 |
| 20260506002205 | 37 | 21 | 0.0 | 1.0 | 0.00 | 0.00 | 0.00 | 87 | 1015.7 |
| 20260506001706 | 37 | 1 | 0.0 | 2.0 | 0.00 | 0.00 | 0.00 | 87 | 1015.6 |
| 20260506000726 | 38 | 1 | 2.0 | 5.0 | 0.00 | 0.00 | 0.00 | 87 | 1015.7 |
| 20260506000206 | 38 | 0 | 2.0 | 5.0 | 0.00 | 0.00 | 0.00 | 87 | 1015.7 |
| 20260505235206 | 38 | 0 | 2.0 | 5.0 | 0.00 | 0.00 | 0.00 | 87 | 1015.8 |
| 20260505234706 | 38 | 0 | 1.0 | 2.0 | 0.00 | 0.00 | 0.00 | 87 | 1015.8 |
| 20260505234206 | 38 | 3 | 0.0 | 2.0 | 0.00 | 0.00 | 0.00 | 86 | 1015.8 |
| 20260505233205 | 38 | 1 | 1.0 | 1.0 | 0.00 | 0.00 | 0.00 | 85 | 1015.9 |
| 20260505231706 | 38 | 7 | 0.0 | 1.0 | 0.00 | 0.00 | 0.00 | 84 | 1016.0 |
| 20260505230712 | 39 | 0 | 2.0 | 5.0 | 0.00 | 0.00 | 0.00 | 84 | 1015.9 |
| 20260505230205 | 39 | 0 | 1.0 | 2.0 | 0.00 | 0.00 | 0.00 | 84 | 1016.0 |
| 20260505225206 | 40 | 1 | 1.0 | 2.0 | 0.00 | 0.00 | 0.00 | 84 | 1016.0 |
| 20260505224707 | 40 | 3 | 1.0 | 6.0 | 0.00 | 0.00 | 0.00 | 84 | 1015.9 |
| 20260505224205 | 40 | 6 | 1.0 | 2.0 | 0.00 | 0.00 | 0.00 | 83 | 1015.9 |
| 20260505223705 | 40 | 17 | 1.0 | 2.0 | 0.00 | 0.00 | 0.00 | 83 | 1015.9 |
| 20260505223206 | 40 | 29 | 2.0 | 3.0 | 0.00 | 0.00 | 0.00 | 83 | 1015.9 |
| 20260505222706 | 41 | 36 | 1.0 | 5.0 | 0.00 | 0.00 | 0.00 | 83 | 1015.9 |
| 20260505222206 | 41 | 27 | 2.0 | 5.0 | 0.00 | 0.00 | 0.00 | 84 | 1016.0 |
| 20260505221706 | 41 | 49 | 1.0 | 5.0 | 0.00 | 0.00 | 0.00 | 84 | 1016.0 |
| 20260505221205 | 41 | 31 | 2.0 | 5.0 | 0.00 | 0.00 | 0.00 | 84 | 1016.0 |
| 20260505220705 | 41 | 42 | 1.0 | 5.0 | 0.00 | 0.00 | 0.00 | 84 | 1016.0 |
| 20260505215706 | 41 | 40 | 3.0 | 7.0 | 0.00 | 0.00 | 0.00 | 85 | 1016.0 |
| 20260505215206 | 41 | 46 | 3.0 | 6.0 | 0.00 | 0.00 | 0.00 | 85 | 1016.0 |
| 20260505214705 | 41 | 46 | 3.0 | 6.0 | 0.00 | 0.00 | 0.00 | 85 | 1016.0 |
| 20260505214206 | 41 | 42 | 2.0 | 6.0 | 0.00 | 0.00 | 0.00 | 85 | 1016.1 |
| 20260505213706 | 41 | 35 | 2.0 | 7.0 | 0.00 | 0.00 | 0.00 | 85 | 1016.1 |
| 20260505212205 | 41 | 35 | 2.0 | 8.0 | 0.00 | 0.00 | 0.00 | 85 | 1016.1 |
| 20260505211706 | 41 | 32 | 3.0 | 8.0 | 0.00 | 0.00 | 0.00 | 85 | 1016.1 |
| 20260505211205 | 41 | 30 | 2.0 | 7.0 | 0.00 | 0.00 | 0.00 | 85 | 1016.2 |
| 20260505210706 | 41 | 24 | 4.0 | 8.0 | 0.00 | 0.00 | 0.00 | 85 | 1016.2 |
| 20260505210206 | 41 | 24 | 4.0 | 8.0 | 0.00 | 0.00 | 0.00 | 85 | 1016.2 |
| 20260505205707 | 41 | 37 | 4.0 | 8.0 | 0.00 | 0.00 | 0.00 | 85 | 1016.2 |
| 20260505205207 | 42 | 37 | 3.0 | 7.0 | 0.00 | 0.00 | 0.00 | 85 | 1016.3 |
| 20260505204707 | 42 | 33 | 3.0 | 10.0 | 0.00 | 0.00 | 0.00 | 85 | 1016.3 |
| 20260505204207 | 42 | 33 | 2.0 | 8.0 | 0.00 | 0.00 | 0.00 | 86 | 1016.2 |
| 20260505203707 | 42 | 45 | 3.0 | 7.0 | 0.00 | 0.00 | 0.00 | 86 | 1016.2 |
| 20260505203206 | 42 | 41 | 4.0 | 9.0 | 0.00 | 0.00 | 0.00 | 86 | 1016.2 |
| 20260505202706 | 42 | 42 | 3.0 | 6.0 | 0.00 | 0.00 | 0.00 | 86 | 1016.2 |
| 20260505202206 | 42 | 27 | 3.0 | 7.0 | 0.00 | 0.00 | 0.00 | 86 | 1016.1 |
| 20260505201707 | 42 | 39 | 2.0 | 6.0 | 0.00 | 0.00 | 0.00 | 86 | 1016.1 |
| 20260505201206 | 42 | 37 | 3.0 | 8.0 | 0.00 | 0.00 | 0.00 | 86 | 1016.1 |
| 20260505200706 | 42 | 52 | 3.0 | 9.0 | 0.00 | 0.00 | 0.00 | 86 | 1016.1 |
| 20260505200206 | 42 | 42 | 3.0 | 8.0 | 0.00 | 0.00 | 0.00 | 86 | 1016.1 |
| 20260505195706 | 42 | 38 | 5.0 | 10.0 | 0.00 | 0.00 | 0.00 | 86 | 1016.0 |
| 20260505194706 | 42 | 50 | 4.0 | 10.0 | 0.00 | 0.00 | 0.00 | 86 | 1016.0 |
| 20260505193706 | 42 | 32 | 4.0 | 13.0 | 0.00 | 0.00 | 0.00 | 86 | 1015.9 |
| 20260505192705 | 42 | 39 | 3.0 | 12.0 | 0.00 | 0.00 | 0.00 | 86 | 1015.9 |
| 20260505192206 | 42 | 55 | 3.0 | 10.0 | 0.00 | 0.00 | 0.00 | 86 | 1015.7 |
| 20260505191705 | 43 | 33 | 6.0 | 17.0 | 0.00 | 0.00 | 0.00 | 86 | 1015.8 |
| 20260505191206 | 43 | 35 | 6.0 | 13.0 | 0.00 | 0.00 | 0.00 | 86 | 1015.7 |
| 20260505190705 | 43 | 30 | 6.0 | 10.0 | 0.00 | 0.00 | 0.00 | 86 | 1015.7 |
| 20260505190206 | 43 | 42 | 6.0 | 10.0 | 0.00 | 0.00 | 0.00 | 86 | 1015.7 |
| 20260505185706 | 43 | 34 | 5.0 | 12.0 | 0.00 | 0.00 | 0.00 | 86 | 1015.7 |
| 20260505185206 | 43 | 54 | 4.0 | 7.0 | 0.00 | 0.00 | 0.00 | 86 | 1015.7 |
| 20260505184706 | 43 | 57 | 4.0 | 13.0 | 0.00 | 0.00 | 0.00 | 85 | 1015.5 |
| 20260505184206 | 43 | 40 | 3.0 | 6.0 | 0.00 | 0.00 | 0.00 | 85 | 1015.5 |
| 20260505183706 | 43 | 44 | 4.0 | 8.0 | 0.00 | 0.00 | 0.00 | 85 | 1015.5 |
| 20260505183206 | 43 | 43 | 6.0 | 13.0 | 0.00 | 0.00 | 0.00 | 85 | 1015.4 |
| 20260505182706 | 44 | 32 | 6.0 | 13.0 | 0.00 | 0.00 | 0.00 | 86 | 1015.5 |
| 20260505182206 | 44 | 46 | 7.0 | 14.0 | 0.00 | 0.00 | 0.00 | 85 | 1015.4 |
| 20260505181706 | 44 | 34 | 6.0 | 8.0 | 0.00 | 0.00 | 0.00 | 85 | 1015.4 |
| 20260505181205 | 44 | 31 | 5.0 | 7.0 | 0.00 | 0.00 | 0.00 | 84 | 1015.5 |
| 20260505180705 | 44 | 46 | 4.0 | 13.0 | 0.00 | 0.00 | 0.00 | 84 | 1015.5 |
| 20260505180206 | 44 | 44 | 5.0 | 13.0 | 0.00 | 0.00 | 0.00 | 84 | 1015.5 |
| 20260505175207 | 44 | 31 | 5.0 | 10.0 | 0.00 | 0.00 | 0.00 | 83 | 1015.5 |
| 20260505174706 | 44 | 38 | 5.0 | 10.0 | 0.00 | 0.00 | 0.00 | 83 | 1015.5 |
| 20260505174206 | 44 | 38 | 3.0 | 8.0 | 0.00 | 0.00 | 0.00 | 83 | 1015.5 |
| 20260505173705 | 44 | 34 | 5.0 | 10.0 | 0.00 | 0.00 | 0.00 | 83 | 1015.5 |
| 20260505172206 | 45 | 33 | 5.0 | 14.0 | 0.00 | 0.00 | 0.00 | 82 | 1015.5 |
| 20260505170205 | 45 | 25 | 6.0 | 8.0 | 0.00 | 0.00 | 0.00 | 82 | 1015.5 |
| 20260505165706 | 45 | 20 | 7.0 | 13.0 | 0.00 | 0.00 | 0.00 | 82 | 1015.5 |
| 20260505164705 | 45 | 22 | 6.0 | 10.0 | 0.00 | 0.00 | 0.00 | 84 | 1015.3 |
| 20260505164206 | 45 | 34 | 5.0 | 10.0 | 0.00 | 0.00 | 0.00 | 83 | 1015.3 |
| 20260505163705 | 45 | 36 | 6.0 | 12.0 | 0.00 | 0.00 | 0.00 | 83 | 1015.3 |
| 20260505163205 | 45 | 8 | 6.0 | 12.0 | 0.00 | 0.00 | 0.00 | 83 | 1015.3 |
| 20260505162706 | 45 | 43 | 6.0 | 13.0 | 0.00 | 0.00 | 0.00 | 82 | 1015.3 |
| 20260505162205 | 45 | 20 | 7.0 | 14.0 | 0.00 | 0.00 | 0.00 | 82 | 1015.3 |
| 20260505161706 | 46 | 32 | 7.0 | 14.0 | 0.00 | 0.00 | 0.00 | 82 | 1015.2 |
| 20260505160705 | 46 | 30 | 7.0 | 12.0 | 0.00 | 0.00 | 0.00 | 83 | 1015.2 |
| 20260505160206 | 46 | 44 | 5.0 | 10.0 | 0.00 | 0.00 | 0.00 | 84 | 1015.2 |
| 20260505153205 | 46 | 29 | 8.0 | 17.0 | 0.00 | 0.00 | 0.00 | 83 | 1014.9 |
| 20260505152708 | 47 | 20 | 7.0 | 14.0 | 0.00 | 0.00 | 0.00 | 83 | 1014.9 |
| 20260505152205 | 47 | 26 | 9.0 | 20.0 | 0.00 | 0.00 | 0.00 | 83 | 1014.8 |
| 20260505151705 | 47 | 10 | 7.0 | 20.0 | 0.00 | 0.00 | 0.00 | 83 | 1014.7 |
| 20260505151205 | 47 | 33 | 7.0 | 14.0 | 0.00 | 0.00 | 0.00 | 82 | 1014.7 |
| 20260505150707 | 47 | 34 | 7.0 | 12.0 | 0.00 | 0.00 | 0.00 | 81 | 1014.7 |
| 20260505150205 | 48 | 18 | 7.0 | 15.0 | 0.00 | 0.00 | 0.00 | 80 | 1014.7 |
| 20260505140206 | 48 | 16 | 7.0 | 13.0 | 0.00 | 0.00 | 0.00 | 82 | 1014.7 |